Wind_Speed
27 28 28 29 30 31 33 33 33 33 34 35 36 36 35 35 34 31 27 22 17 13 10 8 5 2 1 4 9 13 16 17 18 17 17 16 17 20 22 22 22 22 23 25 28 30 35 37 35 35 38 40 43 45 44 44 44 44 43 42 41 38 36 37 35 34 36 35 32 35 40 44 45 43 41 41 40 39 38 38 38 38 38 37 37 36
27 27 27 28 28 29 30 31 32 32 33 33 33 33 33 33 33 32 30 28 24 19 13 9 5 3 1 4 7 10 13 16 17 18 18 18 18 20 23 23 22 22 24 25 28 30 34 37 37 36 38 41 43 45 47 46 45 45 46 44 42 40 39 40 40 38 39 40 37 37 41 44 45 44 43 43 42 41 41 41 41 41 40 39 39 38
26 26 27 27 27 27 28 29 30 31 32 32 32 32 32 31 30 30 29 29 28 25 19 13 7 3 0 3 6 8 11 14 16 17 18 19 19 20 22 23 23 22 24 26 28 30 33 37 38 37 37 40 43 44 46 47 47 47 47 46 44 42 41 41 41 42 43 43 41 39 40 42 45 46 44 43 43 43 44 44 44 43 42 41 40 39
25 26 27 27 27 26 26 27 29 30 31 31 31 31 31 30 29 28 27 26 26 26 23 19 13 8 2 2 5 7 9 12 14 16 17 18 19 20 22 24 24 24 24 26 28 31 33 36 39 39 39 40 42 44 45 46 48 48 48 48 46 45 44 42 41 42 44 45 44 43 43 43 46 47 46 45 44 44 45 45 45 44 43 42 41 40
24 25 26 27 26 26 25 25 27 28 30 30 30 30 30 30 29 27 25 24 24 23 22 21 18 15 10 4 2 6 9 11 13 14 16 18 20 21 23 24 25 26 26 27 28 30 33 36 38 40 41 40 41 43 45 46 47 48 49 50 50 48 47 44 43 44 46 46 45 44 44 46 47 47 48 48 47 46 45 45 45 45 44 43 42 42
23 24 25 26 26 26 26 25 26 27 29 29 29 29 29 29 29 27 26 24 23 22 21 20 19 19 17 13 8 2 4 8 12 14 16 17 19 21 23 25 26 27 28 28 28 30 32 35 38 40 42 42 42 42 45 47 48 48 49 51 52 52 51 48 45 45 47 49 49 47 45 47 48 48 49 49 49 49 48 47 46 45 45 45 45 45
22 23 23 25 26 26 26 25 26 27 27 28 28 28 28 28 28 27 26 24 22 22 20 19 19 18 19 18 16 12 8 3 5 9 13 16 19 21 23 25 26 28 29 30 30 31 32 35 38 40 42 43 45 44 45 47 49 49 50 51 52 53 54 52 48 46 47 50 52 51 49 49 50 50 50 50 51 51 50 49 48 47 46 46 47 48
21 22 22 24 25 25 26 26 26 26 27 27 27 27 27 26 26 26 26 24 22 21 20 19 18 17 17 18 18 17 15 12 8 5 6 10 14 18 21 24 26 28 30 31 32 33 34 35 38 41 42 43 46 47 47 48 49 51 52 52 53 54 55 56 54 51 51 51 52 52 51 51 52 53 53 52 51 51 51 51 50 50 49 48 49 49
20 21 22 22 24 24 25 26 26 26 26 26 26 26 26 25 24 25 25 25 23 22 21 20 18 17 15 16 16 16 15 15 13 11 8 7 8 11 15 20 24 27 30 32 33 34 35 37 38 40 43 44 45 48 49 49 50 51 52 54 54 55 56 57 57 57 56 55 55 54 53 52 53 54 55 54 53 52 52 52 52 52 51 51 50 50
20 21 21 22 23 23 24 25 26 26 26 26 25 25 25 24 24 23 23 23 24 23 23 22 21 18 15 13 14 13 13 13 13 12 10 9 9 9 11 14 18 23 27 30 33 35 37 38 39 40 43 45 47 48 49 50 51 52 53 54 56 56 57 57 58 58 58 58 57 56 55 54 54 55 55 55 55 54 54 53 54 53 53 53 52 52
21 21 21 22 22 23 24 25 25 25 25 25 25 24 24 24 23 22 22 22 22 23 24 24 25 23 18 14 13 12 12 12 11 11 11 10 9 9 10 11 12 16 21 25 29 33 36 38 40 41 43 44 47 49 51 51 52 53 54 56 57 57 58 58 59 59 59 58 58 57 56 55 54 55 55 55 55 55 54 54 55 55 54 54 54 54
22 22 22 22 22 22 23 25 25 25 24 25 24 24 24 24 23 23 21 20 20 22 23 23 24 25 24 20 16 14 13 13 12 12 11 10 9 10 10 11 11 13 16 19 23 28 32 36 39 41 43 45 47 49 51 53 54 55 56 57 58 58 59 60 61 61 61 60 60 59 58 57 56 56 56 56 55 55 55 55 55 55 55 55 55 55
23 23 23 22 22 22 23 24 25 24 24 25 25 25 25 25 24 23 22 20 19 20 22 22 22 24 25 24 22 20 17 15 16 15 14 13 12 11 11 11 12 13 14 16 19 22 26 31 36 39 42 45 47 48 50 53 55 56 57 58 59 59 60 61 62 63 63 63 63 62 62 61 60 59 58 57 57 57 57 57 57 57 57 56 56 56
25 25 25 24 23 23 23 23 24 24 24 25 25 26 26 26 25 25 24 22 19 19 20 21 21 22 23 24 25 25 22 18 17 17 17 17 16 15 14 13 13 14 15 17 18 20 23 26 31 35 39 42 45 48 50 52 54 56 58 60 60 60 60 61 62 62 64 65 65 65 64 64 63 63 62 61 60 59 59 58 58 58 58 58 58 58
26 26 26 24 24 24 23 22 23 23 24 25 25 26 27 27 27 25 25 25 22 20 21 21 21 21 22 23 25 26 26 24 20 18 17 18 18 18 18 17 16 16 16 17 18 20 21 24 27 30 34 38 41 45 48 51 53 55 57 59 61 62 62 63 63 63 64 65 65 66 66 66 66 66 65 65 64 63 62 61 61 60 60 60 60 60
27 28 27 25 24 24 23 22 22 22 23 24 25 26 27 27 27 26 26 27 25 23 23 23 23 22 21 22 25 27 28 28 27 23 19 17 18 19 20 20 20 19 18 19 19 20 22 23 24 27 30 33 37 40 44 47 51 54 56 58 60 61 63 64 65 65 66 66 66 66 67 67 67 67 67 68 67 67 66 65 65 64 63 62 62 62
29 29 28 27 25 24 23 23 23 23 23 23 24 25 26 26 26 26 25 27 26 24 25 26 26 24 22 22 24 26 29 30 30 29 26 22 18 18 19 20 22 22 22 21 21 22 23 24 24 25 26 29 33 36 40 43 46 50 53 56 58 59 61 64 66 67 68 69 69 68 68 68 68 68 69 69 69 69 69 69 68 68 67 66 65 65
31 30 30 29 27 25 24 24 24 24 23 24 24 25 26 26 26 25 24 26 27 25 25 27 28 28 24 22 23 25 28 30 31 32 32 30 25 21 19 20 22 24 24 24 24 24 25 25 25 25 25 27 29 33 36 40 43 46 49 52 55 57 59 62 64 66 68 69 71 71 70 70 70 70 70 70 70 70 70 71 71 71 70 70 69 69
32 32 32 31 28 26 25 26 26 25 25 25 25 26 27 26 25 25 24 24 25 25 25 27 30 32 28 24 23 25 27 29 30 32 34 35 33 28 23 22 22 24 26 26 26 26 26 26 26 26 26 27 29 30 33 36 40 43 46 48 51 54 57 59 62 64 66 69 71 71 71 72 73 73 73 73 72 72 72 72 72 72 72 72 72 72
34 35 34 33 31 28 27 27 27 27 27 27 27 27 28 28 27 25 24 24 25 25 26 27 30 35 33 27 26 27 28 29 29 31 34 36 36 34 29 25 24 24 26 28 28 29 28 28 28 28 27 28 30 30 31 33 35 39 43 46 48 51 54 56 59 62 64 67 69 71 72 72 74 75 76 76 75 75 74 74 74 74 74 74 74 74
35 36 36 34 33 31 29 29 29 29 29 29 29 29 29 29 29 27 25 25 26 26 27 28 29 35 37 31 29 30 30 30 29 30 33 35 37 38 36 32 29 27 27 29 30 31 31 31 30 30 29 29 30 31 32 32 33 35 39 42 45 48 51 53 56 58 61 64 67 69 70 71 73 75 76 77 77 77 77 76 76 76 76 76 76 76
39 38 37 35 35 35 33 32 32 32 32 32 32 31 31 31 30 29 27 26 27 27 28 29 29 34 39 34 32 34 33 31 31 31 33 35 37 39 40 38 35 32 30 30 31 33 34 34 33 32 32 31 31 31 32 33 34 34 35 38 41 44 47 50 52 55 58 60 63 65 67 69 71 74 76 77 78 78 78 78 79 79 79 79 78 78
44 41 39 38 38 37 36 35 35 36 36 35 35 35 34 34 33 32 30 28 28 28 30 31 30 34 40 37 34 36 37 35 33 33 35 36 38 40 42 42 40 36 34 32 31 32 35 36 36 35 34 33 32 32 32 33 34 34 35 36 38 41 43 46 48 51 53 56 58 60 62 65 67 70 72 74 77 78 79 80 81 80 80 80 80 79
47 45 43 41 41 40 39 39 39 39 39 38 38 38 38 37 36 35 33 32 31 29 31 33 32 34 40 39 38 39 40 39 37 36 37 39 40 42 43 44 43 40 38 35 32 32 33 36 38 38 37 35 34 33 33 33 34 34 34 35 38 39 41 43 45 47 49 50 52 54 57 59 62 65 66 69 72 74 77 79 80 81 81 80 80 80
49 48 47 46 45 43 42 42 42 42 42 41 41 41 40 40 40 38 36 35 34 34 35 35 34 37 40 41 41 41 42 41 40 39 39 41 42 43 45 47 47 44 42 39 35 32 33 35 37 39 39 37 35 35 34 34 34 34 33 34 36 38 40 41 42 44 45 47 48 50 52 54 56 58 60 62 64 67 69 72 74 76 78 79 80 81
51 51 51 50 49 47 46 46 45 44 45 45 44 44 43 42 42 42 39 37 38 38 38 37 38 40 41 41 42 43 43 42 42 41 41 41 43 44 46 49 50 48 47 43 38 34 33 34 36 38 39 38 37 36 35 35 35 35 34 33 34 37 39 40 41 41 42 44 46 48 50 51 52 53 55 57 58 59 61 63 66 68 71 73 76 78
54 54 53 52 52 51 50 49 48 47 48 48 47 47 46 45 45 44 42 41 41 41 40 41 42 41 42 42 43 45 44 42 42 43 42 42 42 44 47 50 52 52 50 47 42 37 35 34 35 37 39 38 37 36 35 35 35 35 35 34 34 35 37 39 39 39 39 41 43 46 47 48 48 49 51 52 54 54 55 57 60 62 64 65 67 70
56 55 55 55 55 54 54 53 51 50 49 50 50 49 49 48 47 47 46 45 45 42 41 45 45 43 43 45 45 45 44 43 44 44 44 43 42 43 47 51 54 54 53 50 44 40 38 36 35 36 38 38 37 36 35 35 35 35 35 35 35 35 36 37 38 37 38 38 40 42 43 44 45 46 48 49 50 51 52 54 56 58 59 60 62 64
57 58 57 58 57 56 57 56 53 52 51 51 51 51 51 50 50 50 49 48 47 44 44 47 47 44 45 47 46 46 45 45 45 46 46 45 43 43 46 51 55 56 56 53 47 42 40 38 36 35 36 38 38 37 36 36 35 35 35 35 35 35 36 37 37 37 37 37 38 39 39 40 42 43 44 45 47 48 49 51 53 55 56 58 60 63
59 60 59 59 58 57 57 55 54 54 54 52 52 52 51 52 52 52 51 50 49 47 47 49 48 46 47 49 48 47 47 47 46 47 48 47 44 44 46 51 56 58 58 56 51 45 41 40 39 37 36 37 39 39 38 37 36 35 35 35 36 35 35 36 37 37 37 37 36 36 37 38 39 40 41 43 44 45 46 48 50 53 53 54 57 62
59 59 57 56 57 55 54 55 55 56 56 55 54 52 52 54 55 54 52 52 51 50 51 51 49 48 50 50 49 49 49 49 48 48 49 48 45 45 47 51 56 59 59 59 54 47 42 40 40 39 37 37 39 39 39 38 36 35 35 35 36 35 35 36 37 37 37 36 35 35 36 37 38 39 40 42 43 43 43 45 47 49 51 53 56 60
57 57 55 56 56 55 55 58 57 57 58 56 54 53 54 56 57 55 54 53 52 52 53 52 50 51 52 52 52 52 51 51 51 50 49 48 46 45 48 52 57 59 61 61 56 49 44 41 41 40 38 38 38 40 40 39 38 37 36 36 35 35 35 36 36 36 36 35 34 34 36 37 38 39 39 40 42 42 42 42 43 45 48 50 52 55
57 56 57 58 58 58 59 61 61 62 60 56 54 54 56 58 57 56 55 54 54 54 53 52 52 53 54 54 54 54 54 55 54 52 51 48 46 46 49 52 56 60 62 62 57 50 45 42 41 41 40 38 38 39 40 40 40 39 38 36 35 34 35 36 37 37 35 35 34 34 35 36 37 38 38 38 40 40 40 40 40 41 42 42 43 47
59 58 59 60 60 61 62 63 66 66 62 58 56 56 57 58 58 58 57 56 56 56 54 53 53 54 55 56 56 55 55 56 56 55 53 49 46 48 50 53 56 60 62 63 58 52 47 43 41 41 41 39 38 39 40 41 42 41 39 37 36 35 35 36 37 37 36 35 34 33 34 35 36 37 37 37 38 39 39 39 38 39 40 40 40 44
61 61 62 62 63 64 65 67 69 67 64 62 61 58 58 60 60 60 60 60 59 58 56 54 53 54 56 57 56 55 56 57 58 56 54 50 48 49 52 55 57 60 62 63 59 53 48 44 42 42 41 40 39 39 41 43 43 42 40 38 37 36 36 36 36 37 37 36 34 33 33 34 35 36 36 36 37 38 38 38 37 37 38 41 44 47
64 64 65 66 68 69 70 71 72 70 67 66 65 61 60 62 63 64 65 64 62 60 57 56 55 56 57 58 57 56 57 57 58 58 55 51 50 51 53 57 59 60 62 63 59 53 50 45 42 42 42 40 39 40 42 44 43 42 41 40 39 38 36 36 37 38 38 37 36 34 34 34 35 35 35 36 36 37 38 38 38 36 36 40 44 47
69 69 68 69 71 72 73 73 73 72 70 69 67 65 64 65 67 67 68 67 64 62 60 59 57 58 59 59 58 57 58 58 59 59 55 52 51 52 53 57 60 61 63 63 58 53 50 46 42 42 41 39 39 40 42 43 44 43 43 42 41 39 36 37 38 39 40 39 38 36 35 35 35 34 34 35 36 37 37 38 38 37 37 39 40 41
75 74 73 73 74 74 74 74 74 74 72 71 70 68 67 68 69 70 70 67 64 63 63 62 60 60 61 61 60 59 59 58 60 60 57 53 53 53 55 58 61 62 63 63 58 53 51 46 43 41 40 39 39 40 41 42 44 45 46 45 43 40 38 37 38 39 41 41 39 37 36 36 35 33 33 34 35 36 37 37 37 37 37 37 38 39
80 79 77 76 76 75 75 75 74 74 74 73 71 70 70 72 71 71 71 67 64 64 65 64 63 63 63 63 62 61 61 60 61 61 58 55 55 55 57 60 62 63 64 63 58 53 50 47 43 41 40 39 39 40 41 43 45 47 47 46 45 42 39 39 38 40 42 42 40 38 37 36 35 33 33 33 34 34 34 34 34 35 36 35 36 38
82 81 79 78 76 75 75 74 74 74 75 74 73 73 74 74 73 73 71 67 65 66 66 66 66 66 65 65 64 63 63 62 61 61 59 57 57 58 59 62 64 65 65 64 58 53 50 47 44 41 40 38 39 41 42 44 46 47 47 46 45 43 41 40 40 40 41 41 40 39 38 36 35 33 33 33 33 33 33 32 32 33 34 35 36 37
81 78 77 75 74 74 75 74 74 76 76 75 75 75 75 74 74 73 71 68 67 68 68 69 69 68 68 67 66 65 65 64 62 60 59 58 59 60 61 64 66 67 67 65 58 52 50 48 45 42 40 39 40 42 43 44 45 47 47 46 45 43 42 40 40 40 39 38 38 38 38 36 34 33 33 33 33 33 32 31 30 31 33 34 35 36
78 76 75 74 73 74 76 76 76 78 78 77 77 77 76 75 74 73 71 70 70 70 70 71 72 71 70 68 67 67 67 66 62 59 59 60 61 62 63 65 67 68 69 66 59 53 49 48 46 43 41 40 41 43 43 43 45 47 47 46 45 44 43 40 38 38 37 36 36 36 36 36 33 32 33 34 34 33 32 30 30 31 32 33 34 34
79 78 77 76 76 78 79 79 79 79 80 79 79 79 78 76 74 72 72 72 73 73 74 74 74 73 70 69 69 69 68 66 62 59 59 61 63 64 65 66 68 69 69 65 59 54 50 47 46 44 41 40 41 43 43 43 45 47 46 45 44 45 43 40 37 36 35 34 34 34 35 35 33 32 33 34 34 33 31 30 30 31 31 32 33 33
81 81 80 80 81 82 82 81 81 82 82 81 80 79 78 76 74 74 74 75 76 77 77 76 75 73 71 70 70 70 69 66 63 61 60 61 64 67 68 69 69 69 68 64 58 55 50 47 46 45 43 41 42 43 43 43 45 47 45 45 45 45 43 40 37 35 34 33 33 33 34 34 33 32 33 34 34 33 31 30 30 30 31 32 33 33
83 84 84 83 84 84 83 83 84 84 83 80 79 79 78 76 76 76 77 78 79 79 78 76 74 73 71 71 71 71 70 66 64 62 62 63 65 68 71 71 71 71 68 62 57 55 52 48 46 45 43 42 42 42 42 43 46 47 45 45 47 46 44 41 37 35 34 34 33 32 33 33 32 32 33 34 34 33 31 30 30 30 31 31 32 32
84 85 85 85 85 85 84 84 84 83 81 79 78 79 79 79 79 79 80 81 81 80 77 75 74 73 73 72 72 72 70 67 65 64 64 65 68 70 72 72 72 72 69 61 55 54 52 49 46 45 44 43 43 43 42 44 46 47 46 45 47 46 45 42 38 36 35 35 34 32 32 31 32 32 34 34 33 32 31 31 30 31 30 30 31 32
83 84 83 82 83 83 82 82 82 81 80 80 80 81 81 81 82 82 82 82 81 79 77 76 75 75 74 73 72 71 70 69 67 66 67 68 70 73 73 73 72 72 68 61 55 53 52 50 48 46 45 45 45 44 44 45 47 48 47 47 47 47 45 43 39 37 35 35 35 33 32 31 32 33 34 34 33 32 31 30 30 30 30 29 30 32
83 84 84 83 83 83 82 81 82 82 82 82 83 84 84 83 83 83 82 81 80 79 78 78 77 76 76 75 73 72 71 71 71 70 71 71 73 75 75 74 74 71 66 61 56 53 51 50 50 48 46 45 45 45 45 46 47 47 48 48 49 49 47 43 40 38 36 36 36 35 33 32 33 33 33 33 32 31 30 29 29 29 29 29 31 33
84 85 85 85 85 85 84 84 84 84 84 85 85 85 85 84 83 82 82 81 81 81 80 80 79 77 76 75 73 72 72 73 74 74 74 75 76 76 76 76 76 71 64 60 57 54 51 51 51 49 47 45 45 45 45 45 46 47 48 49 50 50 48 44 41 39 37 35 36 36 34 33 32 33 33 32 31 31 30 30 29 29 29 30 31 33
86 86 86 86 86 86 86 87 87 87 86 86 85 85 84 84 83 83 83 83 83 82 82 81 79 78 76 75 75 74 75 76 77 77 77 78 78 77 77 77 75 69 64 60 57 55 53 51 51 51 49 47 46 46 46 45 46 48 49 51 52 51 49 45 42 40 38 35 35 36 35 33 31 32 32 32 31 30 30 30 29 28 29 30 32 33
88 88 88 87 87 87 89 89 89 88 86 85 85 85 85 85 85 85 85 85 84 83 82 80 79 78 77 77 77 77 78 79 79 80 80 81 80 79 78 76 72 67 64 61 58 55 53 52 52 52 51 49 49 49 49 48 47 48 50 52 53 53 50 45 42 41 39 35 34 36 36 34 32 31 32 32 31 30 30 30 29 28 29 30 31 32
Wind_Direction
12 15 16 18 21 24 26 28 30 32 33 33 34 35 36 38 41 43 44 45 45 45 46 48 45 41 203 214 215 216 217 218 220 224 228 229 228 224 223 222 219 220 221 218 215 211 207 204 200 199 200 200 202 203 205 206 206 209 215 219 220 220 218 216 213 211 208 207 215 225 225 225 227 226 226 224 221 219 219 220 222 223 225 226 228 229
8 12 13 14 17 21 23 24 26 28 29 30 31 32 33 35 37 38 40 42 44 46 48 51 52 44 254 229 226 224 226 228 230 233 235 237 233 227 225 225 222 220 222 221 218 215 212 209 205 202 205 205 206 207 208 209 210 212 215 217 219 220 220 220 220 219 217 215 221 228 226 225 226 226 228 227 224 222 221 222 224 226 227 228 229 231
5 8 11 11 13 17 20 21 21 23 24 26 28 29 30 32 33 35 36 38 41 43 44 46 48 47 339 243 235 231 231 232 234 235 237 239 237 232 229 228 227 224 224 223 221 219 216 214 211 206 207 209 209 210 211 211 212 215 216 216 216 218 219 221 222 223 223 223 226 231 230 228 227 227 229 229 228 226 225 226 228 229 230 230 230 232
2 4 6 8 10 12 16 17 17 18 19 22 24 26 27 28 29 31 33 34 37 40 41 41 41 42 38 251 241 238 237 234 234 234 233 233 234 234 232 231 230 228 227 226 223 222 219 218 217 212 208 211 212 213 215 214 214 216 217 218 217 217 218 221 225 226 226 227 230 233 233 232 230 229 229 230 230 229 229 230 231 231 232 231 231 233
358 360 1 4 6 8 10 12 13 13 14 17 20 22 24 24 25 27 28 29 31 35 39 38 35 34 37 34 249 235 237 236 235 235 232 229 228 229 231 232 232 230 228 228 226 224 223 222 222 219 213 212 214 216 217 218 217 217 218 218 219 219 220 223 227 229 229 229 230 233 234 233 232 232 232 232 231 231 231 232 233 233 233 232 232 233
356 356 356 358 360 2 4 6 7 9 10 11 14 17 20 22 23 23 23 23 23 26 32 36 32 27 27 30 28 2 243 233 231 232 232 231 228 226 226 228 231 231 229 228 227 225 224 224 224 225 221 216 215 217 219 221 221 220 220 219 220 221 223 224 227 228 229 230 230 232 234 234 233 234 234 234 234 234 233 233 234 234 234 234 233 233
352 352 352 352 354 356 359 0 2 3 5 7 9 11 15 18 20 22 22 21 19 18 20 29 33 26 21 22 21 17 8 327 250 234 230 229 229 227 226 226 227 230 231 229 227 226 224 224 225 226 226 223 219 218 220 223 224 224 223 223 222 222 223 224 225 225 226 228 229 231 233 233 233 235 235 236 236 236 236 235 235 235 235 234 234 234
348 348 348 347 347 350 353 354 356 358 0 2 4 6 9 13 17 19 21 21 20 16 12 17 27 29 20 16 16 13 11 5 353 320 265 241 233 230 227 226 226 228 230 230 229 227 226 225 224 225 226 226 225 222 222 223 225 226 226 227 226 225 224 224 225 225 224 226 228 230 232 232 232 233 235 236 236 237 236 236 236 236 236 235 235 235
343 342 344 343 341 344 347 348 350 352 354 357 359 0 3 7 10 13 17 20 21 19 15 11 17 27 24 15 11 8 7 4 1 355 338 306 272 248 236 229 226 226 228 229 230 229 228 227 226 225 225 226 227 227 226 225 225 227 228 229 230 229 229 228 228 227 227 227 229 230 232 232 231 232 233 234 235 236 236 236 235 235 236 236 236 235
338 337 338 339 337 338 340 343 345 347 349 351 353 354 356 358 3 6 9 13 18 20 20 17 14 21 25 16 9 5 1 359 357 356 351 334 312 287 264 247 236 230 229 229 230 229 229 229 229 228 227 227 227 229 230 229 228 227 229 230 232 232 233 233 233 233 233 232 233 233 234 233 233 233 234 235 235 236 236 237 236 236 236 236 236 236
331 332 332 334 334 333 334 337 340 342 343 344 345 347 349 352 355 358 1 4 9 14 18 21 20 21 22 15 4 358 352 349 346 346 349 343 324 306 289 272 256 244 238 234 233 232 231 230 230 230 230 230 229 229 230 232 232 231 230 230 231 233 234 235 237 238 238 238 238 237 236 236 235 235 235 236 237 237 238 238 238 239 239 239 239 239
323 325 326 329 329 329 331 332 335 338 339 338 339 340 342 345 347 349 353 355 358 5 10 16 21 23 23 19 10 359 346 338 334 333 337 339 330 314 300 288 275 262 253 246 242 239 236 233 231 230 231 231 231 231 231 231 233 234 234 233 232 232 233 234 236 238 239 240 240 239 239 238 237 237 237 237 238 238 239 239 239 240 240 242 243 243
316 317 320 324 325 326 328 330 331 335 337 335 335 335 336 338 340 341 343 345 349 356 1 5 12 18 21 22 20 12 359 343 335 331 330 330 329 321 309 298 287 276 267 259 253 248 244 240 235 232 232 231 232 232 233 233 233 234 236 237 237 236 235 235 235 236 238 239 240 240 240 240 239 238 238 238 238 239 240 240 241 241 242 242 243 244
311 311 314 320 322 323 327 328 329 332 334 333 332 332 332 333 334 334 336 337 339 344 350 355 1 9 14 17 18 16 11 1 348 337 330 326 323 319 313 304 295 286 278 270 263 257 253 249 244 239 235 234 233 232 233 234 234 234 235 237 238 240 240 239 238 238 238 239 239 240 241 241 241 241 240 240 240 240 240 240 242 243 243 244 244 244
307 307 309 315 317 319 324 326 328 330 331 331 331 331 330 330 330 330 330 332 333 333 339 345 350 357 5 8 10 10 10 10 4 352 338 329 322 317 311 305 299 293 287 280 273 267 261 256 251 247 242 239 236 235 234 233 234 235 236 236 237 239 241 242 242 241 241 240 240 240 241 242 242 243 243 243 242 242 242 242 242 242 243 244 245 246
302 304 306 310 313 316 319 321 325 329 330 329 329 329 329 329 329 328 327 329 330 329 331 337 341 345 354 0 2 2 3 6 7 3 353 338 326 319 312 304 297 293 288 284 280 276 271 265 259 254 249 245 242 239 237 236 235 234 235 236 237 238 240 241 243 244 244 244 243 241 241 242 242 243 243 244 244 244 244 244 244 243 243 244 245 246
297 300 303 306 310 312 314 316 319 325 327 327 327 327 329 330 329 328 326 325 327 326 326 330 333 336 342 351 355 355 355 357 360 1 359 350 334 322 314 306 296 290 286 283 281 278 276 273 269 264 257 251 246 243 241 239 238 236 235 235 236 238 240 241 242 243 244 246 246 245 244 243 242 242 243 244 244 245 245 245 245 245 245 245 245 246
293 296 298 301 304 307 309 310 314 319 323 324 324 325 328 330 330 329 327 323 324 324 322 324 326 327 332 342 348 348 348 350 353 355 358 355 345 331 319 311 301 291 284 280 279 277 276 275 274 272 268 262 255 247 243 241 240 239 238 237 236 237 238 240 242 243 243 244 246 247 247 246 246 245 244 244 244 244 245 245 245 245 245 245 245 246
290 292 294 296 300 303 304 304 308 314 317 319 321 322 325 328 329 329 327 323 322 321 318 320 321 319 323 333 340 341 342 345 348 350 353 354 349 340 327 315 307 295 285 279 276 275 274 274 275 274 273 270 265 257 250 244 241 241 240 238 237 237 237 239 240 242 243 244 245 246 246 246 247 247 247 246 245 245 244 244 245 245 246 246 246 246
286 288 290 293 296 299 298 298 302 306 310 313 315 318 320 322 325 328 326 322 320 319 316 316 316 313 316 326 331 334 337 341 345 347 348 348 346 343 334 321 310 301 290 280 274 273 273 273 274 274 273 271 270 267 262 254 247 243 242 240 238 238 238 238 239 240 242 243 244 245 246 246 246 247 248 248 248 247 246 246 245 246 246 246 246 246
284 284 286 290 293 295 294 295 296 299 303 305 308 312 313 315 319 323 324 321 318 317 313 312 312 308 309 318 325 326 331 336 341 345 345 343 341 341 339 329 316 306 297 287 278 274 274 274 274 274 273 272 271 271 269 266 260 252 247 244 241 239 239 239 239 240 241 242 243 245 245 246 246 246 247 248 248 249 249 248 248 247 247 246 246 246
282 281 283 287 289 291 292 292 292 294 297 300 303 306 307 310 313 316 319 318 315 315 310 308 311 306 304 312 320 321 324 329 336 342 342 339 337 338 339 335 324 312 302 294 285 278 276 276 275 274 273 274 274 273 272 271 269 264 257 251 246 243 241 240 241 241 241 242 243 244 245 246 246 246 247 247 248 248 249 249 249 249 248 248 247 247
281 280 281 283 284 287 289 288 288 290 292 296 300 301 302 305 308 311 314 312 312 313 305 305 312 305 302 310 316 316 319 323 330 338 338 336 335 336 337 337 332 320 308 299 292 285 281 279 277 275 274 274 275 275 275 275 274 271 266 259 253 249 245 242 242 242 243 243 243 244 245 246 247 247 247 247 247 248 248 249 250 250 250 250 250 249
278 279 279 279 281 284 286 286 286 287 289 293 296 298 300 302 304 307 308 308 310 308 301 305 309 302 303 313 314 312 314 318 325 333 333 332 333 333 334 336 335 327 314 303 297 293 288 283 279 276 274 273 274 276 277 278 277 275 271 265 258 254 251 247 245 244 244 245 245 245 246 246 247 247 248 247 247 248 248 249 250 250 251 251 251 251
275 276 278 278 278 280 283 284 285 287 289 291 292 294 297 299 301 302 304 305 306 302 301 306 305 299 304 312 312 311 312 314 321 326 327 328 329 330 332 333 334 331 321 310 303 297 292 286 279 275 273 273 273 275 277 279 280 279 276 270 262 258 255 252 249 247 246 247 247 247 248 248 248 248 249 249 249 249 249 250 250 251 251 251 252 252
272 274 276 277 277 278 279 281 284 286 287 288 290 292 294 297 298 299 301 301 300 299 303 305 302 301 304 307 308 309 310 312 317 318 320 323 325 327 328 329 332 332 326 317 309 302 296 291 284 277 274 273 273 275 277 280 282 283 281 276 267 261 258 256 254 251 249 248 248 249 249 249 249 250 251 252 252 252 251 251 252 252 252 252 252 252
271 272 274 275 276 277 277 280 282 284 285 287 288 290 292 294 296 297 298 297 295 298 303 302 300 302 304 304 305 307 309 312 312 311 313 317 320 324 325 326 328 331 329 322 312 304 299 295 290 283 277 274 273 275 277 280 283 284 284 281 272 265 262 260 258 256 253 250 249 249 249 251 252 252 252 252 253 253 252 252 252 252 252 252 252 252
269 270 272 273 274 276 277 279 281 282 284 286 286 288 290 292 294 295 294 293 293 297 299 297 298 302 302 301 304 308 310 309 307 307 309 310 316 322 324 323 325 329 329 323 314 304 299 296 292 287 281 276 274 274 276 279 281 283 284 284 278 270 267 265 263 260 257 255 253 251 251 252 252 252 253 253 253 253 253 253 253 252 252 251 251 252
267 269 270 271 273 275 276 277 279 280 282 284 285 286 288 290 291 291 290 291 292 294 294 294 297 300 299 299 304 309 309 306 304 305 305 307 313 320 322 322 323 325 327 323 315 304 297 295 293 289 283 277 274 274 275 277 279 281 284 285 281 273 268 267 265 263 261 260 258 257 256 255 254 254 254 254 253 253 252 252 253 253 253 252 251 251
267 269 271 272 274 275 275 275 276 278 280 282 283 284 286 288 287 286 288 289 290 292 291 292 297 299 296 298 303 306 305 304 304 303 303 306 311 316 320 321 320 321 324 323 316 305 297 294 293 290 283 276 274 274 275 276 278 280 283 286 283 276 269 267 266 265 264 263 262 262 261 261 261 260 260 258 257 255 254 254 253 253 252 251 250 250
267 270 272 273 273 274 272 272 273 276 278 280 282 284 285 284 283 284 286 287 288 290 290 293 299 298 296 297 300 301 302 304 303 301 302 305 308 314 319 319 317 318 321 322 318 307 298 294 292 290 282 274 272 273 274 276 278 280 282 285 285 280 272 268 268 266 265 265 265 264 264 264 263 263 264 264 263 261 259 258 257 255 253 251 251 250
265 268 269 269 270 271 269 270 271 273 275 279 282 283 282 281 281 283 284 285 286 288 290 294 298 297 296 298 298 298 300 302 302 301 300 302 306 313 316 315 315 317 319 321 318 308 299 294 291 289 283 274 272 272 274 277 278 280 281 282 283 281 275 270 269 268 266 266 266 265 264 264 263 263 264 265 266 265 263 262 260 259 258 255 253 251
260 263 265 266 267 268 267 268 269 271 274 279 281 279 278 280 281 282 282 283 285 286 289 292 295 296 297 297 296 297 298 299 300 300 298 300 305 310 312 312 314 315 318 320 316 308 300 294 290 289 283 274 271 272 274 276 277 279 280 280 281 281 277 273 270 268 267 266 265 264 264 264 264 264 265 267 268 269 268 266 264 262 259 255 253 252
256 258 260 261 263 265 266 266 267 270 275 277 277 276 278 280 281 280 281 283 284 286 288 290 292 294 296 296 296 296 296 296 298 298 298 300 304 308 310 311 313 314 317 319 315 306 300 295 291 288 282 273 269 270 272 274 275 277 279 279 279 281 280 276 272 270 268 265 264 264 264 264 266 266 267 269 271 272 271 269 267 265 261 256 253 254
256 257 257 258 259 261 263 264 266 270 274 275 276 277 278 280 280 279 281 283 284 286 287 289 291 293 295 295 295 295 295 294 295 296 297 299 303 307 309 310 312 313 316 318 314 305 299 295 291 288 283 273 267 267 269 271 274 277 278 278 279 281 282 280 276 272 269 267 265 264 264 264 265 266 268 270 272 274 274 272 269 266 263 259 256 256
256 258 257 257 257 258 260 263 267 270 272 274 276 277 277 279 279 280 282 283 284 285 287 289 292 293 294 295 294 293 292 292 293 295 296 298 302 305 307 308 311 313 315 317 312 302 298 295 290 287 283 273 266 265 267 270 273 276 278 278 279 280 282 283 280 274 270 269 266 265 263 263 263 265 268 271 274 275 275 273 271 266 262 260 259 258
257 258 257 257 257 258 261 263 267 270 272 274 275 275 276 278 279 280 282 283 285 287 288 290 292 294 294 294 292 292 292 292 293 293 295 297 300 303 306 307 310 312 314 315 310 300 296 294 289 287 283 272 264 264 267 271 274 276 278 279 279 280 281 283 281 276 271 269 267 266 264 262 262 263 267 270 273 275 275 273 271 268 264 263 263 261
256 257 257 257 257 259 261 264 267 269 271 272 273 273 275 277 279 280 281 283 286 287 288 290 293 295 294 293 291 291 292 292 292 293 295 297 299 302 305 307 309 310 313 314 308 299 295 292 287 285 281 271 263 262 266 269 272 274 276 278 279 280 280 281 281 278 273 269 267 266 264 263 262 262 264 267 271 274 275 273 272 270 268 266 265 262
254 255 256 257 258 260 262 264 266 268 269 270 271 272 274 277 278 278 280 283 284 284 286 290 292 293 292 291 291 291 291 292 292 292 295 298 300 303 305 306 308 309 311 312 307 299 293 289 285 283 278 268 260 261 264 266 268 271 273 276 278 279 279 281 282 280 275 271 269 268 266 265 265 264 265 267 271 273 274 272 272 271 270 268 265 263
252 254 256 257 259 261 263 264 265 267 268 269 270 272 274 276 277 278 280 282 283 283 286 288 290 290 290 289 289 290 290 291 291 292 295 298 300 302 304 305 307 308 310 310 306 298 292 287 283 281 275 265 257 257 261 264 266 269 271 274 276 278 279 281 283 281 276 272 271 270 269 267 267 268 268 270 273 275 273 271 271 271 271 270 268 265
254 255 257 257 259 260 262 263 264 265 266 268 270 272 273 274 275 277 280 281 281 283 284 286 287 288 287 287 287 288 289 290 291 293 295 297 299 301 302 304 305 307 309 308 304 297 291 285 280 277 272 263 256 255 258 261 265 268 270 273 275 278 279 280 282 281 277 272 270 270 269 268 268 270 272 273 275 275 274 272 270 270 270 270 269 269
254 254 255 256 257 258 260 261 262 264 266 268 269 270 271 272 275 277 279 280 281 282 283 284 285 285 285 285 286 287 289 291 292 292 294 296 298 299 301 303 304 305 307 306 302 297 291 283 278 275 269 261 256 255 256 259 263 266 269 271 274 277 278 279 281 282 278 272 268 267 267 266 266 269 272 273 275 276 276 275 273 273 273 272 270 270
251 252 253 255 256 257 259 260 262 263 265 267 268 269 270 272 274 276 278 279 280 280 281 282 283 283 284 285 286 287 289 291 291 292 293 295 297 299 300 301 302 304 305 304 300 295 291 283 277 272 266 258 255 255 256 258 262 265 268 271 274 276 278 279 281 281 277 271 266 264 264 265 266 268 270 272 275 278 278 276 275 276 277 276 274 274
251 253 254 256 257 258 259 260 262 263 264 265 266 268 270 272 274 276 277 277 278 279 280 281 282 283 284 285 286 287 289 290 290 291 293 294 296 297 299 300 301 302 304 302 297 293 290 283 276 271 264 256 253 254 255 258 261 264 268 271 273 276 278 279 279 279 274 268 263 262 263 265 266 267 270 272 275 278 278 276 276 277 277 276 277 277
252 253 254 255 256 258 259 261 262 263 264 265 266 268 270 272 273 274 275 276 276 277 279 280 282 283 285 285 286 287 288 289 289 290 292 293 295 296 298 299 300 301 302 299 293 291 289 283 276 270 263 256 252 252 253 256 260 263 266 270 272 275 278 279 279 278 273 266 262 260 261 264 266 268 270 272 275 278 278 276 276 277 277 278 279 280
252 253 255 256 257 259 260 261 262 263 264 265 266 268 270 271 273 274 274 275 276 278 280 281 283 284 284 285 286 287 288 288 288 289 291 292 294 295 296 297 299 300 299 295 290 287 285 280 275 269 263 257 252 250 251 254 258 262 264 267 271 274 277 278 278 278 274 267 262 261 261 264 267 269 270 272 275 277 277 276 276 277 279 281 283 284
252 254 255 257 258 259 260 261 262 263 264 265 266 268 269 271 272 273 274 275 277 279 281 282 283 284 284 285 286 287 287 287 288 289 291 292 293 295 295 296 298 298 296 291 287 284 280 277 273 268 262 257 252 250 249 252 256 260 263 265 268 272 275 276 278 279 276 269 262 261 261 263 266 268 269 271 274 276 275 274 275 278 281 284 286 287
253 254 255 256 257 258 259 260 261 262 264 265 267 268 269 271 272 273 275 277 278 280 281 282 283 284 284 285 285 286 286 287 288 289 291 292 293 294 294 296 296 295 291 287 284 281 277 273 269 265 261 256 251 248 248 250 254 258 261 264 267 269 272 274 276 278 278 271 264 261 261 262 264 266 267 269 273 275 274 274 275 279 283 286 288 289
252 254 255 256 257 258 259 260 261 262 264 265 267 269 270 271 272 274 275 277 278 280 281 282 283 283 283 284 284 284 285 286 288 289 290 291 292 293 293 294 294 291 287 283 281 278 273 269 265 262 259 254 249 246 246 249 253 257 260 263 265 268 270 272 273 275 276 271 265 262 260 260 261 264 266 269 273 275 275 275 277 281 285 288 289 289
251 252 254 255 257 258 259 261 262 263 265 266 267 269 270 271 273 274 276 277 278 280 281 282 282 282 282 282 283 283 285 286 287 289 290 291 291 291 292 292 291 287 283 281 278 274 271 266 261 259 256 252 247 243 243 246 251 254 257 260 262 265 267 269 272 273 273 270 266 263 261 259 260 263 266 269 272 274 275 276 278 282 286 288 288 288
251 252 253 255 256 258 260 261 262 264 265 266 267 268 269 271 272 274 275 277 278 279 280 281 281 281 281 281 282 283 285 286 287 288 289 290 290 290 290 289 287 283 281 279 275 272 268 264 259 256 254 250 246 242 240 242 246 250 253 256 259 262 265 268 270 271 271 269 267 264 261 259 259 262 265 268 271 274 274 275 277 281 284 286 286 287
Height
10718 10716 10714 10712 10710 10708 10705 10703 10701 10699 10697 10694 10692 10689 10687 10684 10683 10681 10680 10678 10677 10677 10676 10676 10676 10676 10677 10678 10678 10679 10681 10682 10683 10684 10685 10686 10688 10689 10690 10691 10693 10695 10697 10698 10700 10703 10705 10708 10711 10713 10714 10716 10719 10722 10724 10726 10729 10731 10732 10733 10735 10736 10738 10740 10742 10744 10746 10746 10748 10749 10750 10752 10756 10758 10760 10760 10762 10764 10765 10767 10768 10769 10770 10771 10772 10773
10718 10717 10715 10713 10712 10710 10707 10705 10703 10701 10699 10696 10694 10691 10689 10687 10685 10683 10681 10680 10679 10678 10677 10677 10677 10677 10677 10678 10678 10679 10680 10681 10682 10683 10684 10685 10686 10687 10688 10689 10691 10693 10694 10696 10698 10700 10703 10705 10708 10710 10712 10713 10716 10718 10721 10723 10725 10728 10729 10730 10732 10733 10735 10736 10739 10741 10742 10743 10743 10745 10746 10749 10753 10755 10756 10757 10759 10761 10762 10763 10764 10765 10767 10768 10770 10771
10719 10717 10716 10714 10713 10711 10709 10707 10705 10702 10700 10698 10696 10693 10691 10689 10687 10685 10683 10681 10680 10679 10678 10677 10677 10677 10677 10677 10678 10678 10679 10679 10680 10681 10682 10683 10684 10685 10686 10688 10689 10691 10692 10694 10696 10698 10700 10702 10705 10707 10709 10710 10712 10714 10717 10719 10722 10724 10725 10727 10729 10731 10732 10733 10735 10737 10738 10739 10741 10742 10744 10746 10749 10751 10753 10754 10756 10757 10758 10759 10760 10762 10764 10766 10767 10768
10719 10717 10716 10715 10713 10712 10710 10708 10706 10704 10701 10699 10697 10695 10692 10691 10689 10687 10685 10683 10682 10680 10679 10679 10678 10678 10677 10677 10677 10677 10678 10678 10679 10679 10680 10681 10682 10684 10685 10686 10687 10689 10690 10691 10693 10695 10697 10699 10702 10704 10706 10707 10708 10711 10713 10715 10717 10719 10721 10723 10725 10727 10729 10730 10732 10733 10734 10736 10737 10739 10741 10743 10745 10747 10749 10750 10752 10754 10754 10756 10757 10759 10761 10763 10765 10766
10719 10717 10715 10714 10713 10712 10710 10708 10706 10704 10702 10700 10698 10696 10694 10692 10690 10688 10686 10685 10683 10682 10681 10680 10679 10678 10678 10677 10677 10676 10676 10676 10677 10677 10678 10679 10680 10681 10682 10683 10684 10686 10687 10689 10691 10692 10694 10696 10698 10700 10702 10704 10705 10707 10709 10711 10713 10715 10717 10719 10721 10723 10725 10726 10728 10729 10730 10732 10734 10735 10737 10739 10741 10743 10745 10746 10748 10750 10751 10752 10754 10756 10758 10759 10761 10762
10718 10716 10715 10713 10713 10712 10710 10708 10706 10705 10703 10701 10699 10697 10695 10693 10691 10689 10687 10685 10684 10682 10681 10680 10679 10678 10677 10676 10676 10676 10675 10675 10675 10675 10675 10676 10677 10678 10680 10681 10681 10682 10684 10686 10687 10689 10691 10693 10694 10696 10698 10701 10702 10703 10705 10707 10708 10710 10712 10714 10716 10717 10720 10722 10723 10725 10726 10728 10730 10732 10733 10735 10737 10738 10740 10742 10744 10745 10747 10748 10750 10752 10753 10755 10756 10757
10718 10716 10714 10713 10711 10710 10709 10707 10706 10704 10703 10701 10699 10697 10695 10693 10691 10689 10687 10685 10683 10682 10681 10680 10679 10677 10676 10675 10674 10674 10673 10673 10673 10673 10674 10674 10675 10675 10677 10678 10678 10679 10680 10682 10683 10685 10687 10688 10690 10692 10694 10696 10698 10699 10700 10701 10703 10705 10707 10709 10710 10712 10714 10716 10718 10719 10721 10723 10726 10727 10729 10731 10732 10734 10736 10738 10740 10741 10743 10744 10746 10747 10748 10750 10751 10752
10717 10715 10714 10712 10710 10709 10708 10706 10705 10704 10702 10701 10699 10697 10695 10694 10692 10690 10688 10686 10684 10682 10680 10679 10678 10677 10675 10674 10673 10672 10671 10671 10671 10671 10671 10672 10672 10673 10674 10675 10675 10676 10676 10677 10679 10680 10682 10683 10685 10687 10688 10691 10693 10694 10695 10697 10699 10700 10702 10703 10705 10707 10708 10710 10711 10713 10715 10718 10720 10722 10724 10726 10727 10729 10731 10733 10735 10737 10738 10740 10741 10742 10743 10744 10746 10747
10716 10714 10713 10711 10709 10708 10707 10705 10703 10702 10701 10700 10699 10697 10696 10694 10692 10690 10688 10686 10684 10682 10681 10679 10678 10677 10675 10674 10672 10671 10671 10670 10669 10669 10669 10669 10670 10670 10671 10672 10672 10672 10673 10673 10674 10675 10677 10678 10679 10681 10683 10685 10687 10689 10691 10692 10694 10695 10696 10698 10699 10701 10703 10705 10706 10708 10709 10712 10714 10716 10718 10720 10722 10724 10725 10727 10730 10731 10733 10734 10736 10737 10738 10740 10741 10743
10715 10713 10712 10711 10709 10707 10705 10704 10702 10701 10699 10698 10697 10696 10695 10694 10692 10690 10688 10687 10685 10683 10681 10679 10677 10676 10675 10674 10672 10671 10670 10670 10669 10668 10668 10667 10667 10667 10668 10669 10669 10669 10669 10669 10670 10671 10672 10673 10674 10676 10677 10679 10681 10683 10685 10687 10688 10690 10691 10693 10694 10696 10698 10700 10701 10703 10705 10707 10709 10711 10713 10715 10716 10718 10720 10722 10724 10726 10728 10729 10731 10732 10734 10735 10736 10737
10713 10712 10711 10709 10708 10706 10704 10703 10701 10700 10698 10697 10696 10695 10694 10693 10691 10689 10688 10686 10685 10683 10681 10679 10678 10676 10675 10674 10672 10671 10670 10669 10668 10667 10667 10666 10665 10665 10665 10665 10666 10666 10666 10666 10666 10667 10668 10669 10670 10671 10672 10674 10675 10677 10678 10680 10682 10684 10685 10687 10688 10691 10692 10694 10696 10697 10699 10702 10704 10706 10708 10709 10711 10712 10714 10716 10718 10720 10722 10724 10725 10727 10729 10730 10731 10733
10710 10710 10709 10708 10707 10705 10703 10701 10700 10699 10697 10696 10694 10693 10692 10691 10690 10688 10687 10686 10684 10682 10681 10679 10678 10676 10675 10673 10672 10671 10670 10668 10667 10666 10666 10665 10664 10663 10662 10662 10662 10662 10662 10662 10662 10663 10663 10664 10665 10666 10667 10668 10669 10671 10672 10674 10675 10677 10679 10680 10682 10684 10686 10688 10689 10690 10692 10695 10697 10699 10701 10703 10705 10706 10708 10710 10712 10714 10716 10717 10719 10721 10723 10725 10727 10728
10708 10707 10706 10706 10705 10704 10702 10700 10698 10697 10696 10694 10693 10691 10690 10689 10688 10687 10686 10684 10683 10681 10680 10679 10677 10676 10675 10673 10672 10670 10669 10668 10666 10665 10665 10664 10662 10661 10660 10660 10659 10659 10659 10659 10658 10658 10659 10659 10660 10661 10662 10662 10663 10665 10666 10667 10669 10670 10672 10674 10676 10678 10680 10681 10682 10684 10685 10687 10689 10691 10694 10696 10698 10699 10701 10703 10705 10707 10709 10711 10713 10715 10717 10719 10721 10723
10705 10704 10704 10703 10702 10701 10700 10698 10697 10695 10694 10692 10691 10689 10688 10687 10686 10685 10683 10682 10681 10679 10678 10677 10676 10675 10674 10673 10671 10670 10668 10667 10665 10664 10663 10662 10661 10660 10659 10658 10657 10656 10656 10655 10655 10654 10654 10654 10654 10655 10656 10657 10658 10659 10660 10661 10662 10664 10665 10667 10669 10672 10674 10675 10676 10678 10679 10680 10682 10684 10686 10689 10691 10692 10694 10696 10698 10700 10702 10704 10706 10708 10710 10712 10714 10716
10702 10701 10701 10700 10700 10698 10698 10696 10695 10693 10692 10690 10689 10688 10686 10685 10684 10683 10681 10680 10679 10677 10676 10675 10674 10673 10673 10672 10670 10668 10667 10665 10664 10663 10661 10660 10659 10658 10657 10655 10654 10653 10652 10651 10651 10651 10650 10650 10649 10650 10650 10651 10652 10653 10654 10655 10656 10657 10658 10660 10662 10665 10667 10668 10668 10670 10672 10673 10675 10677 10679 10681 10683 10685 10687 10688 10690 10692 10695 10697 10699 10701 10703 10705 10707 10709
10698 10698 10697 10697 10697 10696 10695 10694 10692 10691 10690 10688 10687 10686 10684 10683 10682 10681 10679 10678 10676 10675 10673 10672 10672 10671 10670 10670 10668 10666 10665 10663 10661 10660 10659 10658 10657 10655 10654 10653 10651 10650 10649 10648 10647 10646 10646 10645 10645 10645 10645 10645 10646 10647 10647 10648 10649 10650 10652 10653 10655 10658 10659 10660 10661 10663 10664 10665 10667 10670 10672 10674 10676 10677 10679 10680 10682 10685 10687 10689 10691 10694 10696 10697 10699 10701
10694 10694 10694 10693 10693 10692 10692 10691 10689 10689 10688 10686 10685 10684 10683 10681 10680 10679 10678 10676 10674 10673 10670 10669 10668 10668 10667 10667 10666 10664 10662 10660 10659 10657 10656 10655 10653 10652 10651 10649 10648 10646 10645 10644 10643 10642 10641 10640 10640 10640 10640 10640 10640 10640 10641 10642 10643 10644 10645 10647 10649 10651 10652 10653 10654 10655 10656 10657 10658 10661 10664 10666 10667 10669 10670 10672 10674 10676 10679 10681 10683 10685 10687 10689 10690 10692
10689 10690 10690 10689 10689 10689 10688 10688 10687 10686 10685 10684 10682 10681 10680 10679 10678 10676 10676 10674 10672 10671 10669 10666 10665 10664 10665 10665 10664 10662 10660 10658 10656 10654 10653 10651 10650 10648 10647 10645 10644 10643 10641 10640 10639 10638 10637 10636 10635 10635 10634 10634 10634 10634 10634 10635 10636 10637 10639 10641 10643 10644 10645 10646 10646 10647 10648 10649 10650 10652 10655 10657 10658 10660 10662 10664 10666 10668 10670 10672 10673 10676 10678 10679 10681 10683
10684 10685 10685 10685 10685 10685 10684 10684 10683 10683 10682 10681 10680 10678 10677 10677 10676 10674 10673 10672 10670 10669 10667 10665 10661 10659 10661 10662 10661 10660 10658 10656 10654 10651 10649 10647 10645 10644 10643 10641 10640 10638 10637 10636 10634 10634 10633 10632 10631 10630 10630 10629 10628 10628 10628 10628 10629 10630 10632 10633 10635 10637 10638 10639 10639 10639 10640 10640 10641 10643 10645 10648 10649 10650 10652 10655 10657 10659 10661 10663 10664 10666 10668 10671 10673 10674
10680 10679 10680 10680 10680 10681 10680 10680 10680 10679 10679 10678 10677 10676 10674 10673 10673 10672 10670 10669 10667 10666 10665 10663 10660 10655 10655 10658 10657 10655 10655 10653 10651 10649 10646 10644 10642 10640 10639 10637 10635 10634 10632 10631 10630 10629 10628 10627 10626 10626 10625 10624 10623 10622 10622 10622 10623 10624 10624 10626 10627 10629 10630 10631 10631 10632 10632 10632 10633 10634 10636 10638 10639 10640 10642 10644 10646 10649 10651 10654 10656 10658 10660 10662 10664 10666
10677 10675 10675 10675 10675 10675 10676 10676 10676 10675 10675 10674 10674 10673 10672 10670 10669 10669 10668 10666 10664 10663 10661 10660 10659 10653 10650 10653 10653 10651 10651 10649 10648 10646 10644 10642 10640 10637 10635 10632 10631 10629 10627 10626 10625 10623 10623 10622 10622 10621 10620 10619 10618 10617 10616 10616 10616 10617 10618 10618 10620 10621 10623 10623 10624 10624 10625 10625 10625 10625 10627 10628 10630 10631 10632 10634 10637 10639 10642 10645 10647 10648 10650 10652 10654 10656
10673 10671 10670 10671 10670 10670 10671 10671 10670 10671 10671 10670 10670 10669 10668 10667 10666 10665 10665 10663 10661 10660 10658 10656 10656 10651 10646 10649 10650 10647 10646 10646 10644 10643 10641 10639 10637 10634 10631 10629 10626 10624 10623 10621 10620 10619 10618 10617 10616 10616 10615 10614 10613 10612 10612 10611 10610 10610 10610 10611 10612 10613 10615 10616 10617 10617 10617 10617 10617 10618 10619 10620 10621 10622 10623 10625 10628 10630 10632 10634 10636 10637 10639 10641 10643 10646
10667 10667 10666 10666 10666 10666 10666 10666 10665 10665 10665 10665 10665 10664 10663 10662 10662 10661 10661 10660 10658 10657 10654 10652 10653 10649 10643 10645 10646 10643 10641 10641 10640 10639 10636 10634 10632 10630 10628 10626 10623 10620 10618 10617 10615 10614 10613 10612 10611 10610 10609 10609 10608 10607 10606 10606 10605 10604 10604 10604 10604 10605 10607 10608 10609 10610 10610 10610 10611 10611 10612 10612 10613 10614 10615 10616 10618 10620 10622 10623 10624 10626 10629 10632 10634 10637
10661 10662 10662 10661 10661 10661 10661 10661 10660 10659 10659 10660 10660 10659 10658 10657 10657 10656 10656 10655 10654 10654 10650 10649 10650 10646 10641 10641 10642 10639 10637 10636 10636 10634 10631 10629 10627 10625 10623 10622 10620 10617 10614 10612 10611 10610 10609 10608 10606 10605 10604 10603 10603 10602 10601 10600 10600 10599 10598 10597 10597 10597 10598 10599 10601 10602 10603 10603 10604 10604 10605 10604 10605 10605 10607 10608 10609 10610 10612 10614 10615 10617 10620 10622 10624 10627
10655 10655 10656 10656 10656 10657 10657 10655 10655 10654 10654 10654 10654 10653 10653 10652 10651 10651 10651 10649 10649 10648 10646 10646 10646 10642 10639 10638 10637 10635 10633 10631 10631 10630 10627 10624 10622 10619 10618 10616 10615 10613 10610 10608 10607 10605 10604 10602 10601 10600 10599 10598 10597 10597 10596 10595 10594 10593 10592 10591 10591 10590 10591 10591 10592 10594 10595 10596 10596 10597 10597 10597 10597 10598 10599 10599 10601 10602 10604 10605 10607 10608 10610 10612 10613 10616
10649 10649 10649 10650 10650 10651 10651 10650 10650 10649 10648 10648 10649 10648 10647 10647 10646 10645 10645 10645 10643 10642 10641 10641 10640 10638 10636 10635 10633 10631 10630 10628 10627 10626 10623 10621 10618 10615 10613 10610 10608 10607 10605 10602 10601 10600 10598 10597 10595 10594 10593 10593 10592 10591 10590 10589 10588 10587 10586 10586 10585 10584 10584 10584 10585 10586 10587 10588 10589 10589 10589 10589 10590 10592 10592 10593 10594 10596 10597 10598 10598 10599 10600 10601 10603 10605
10643 10643 10643 10644 10643 10644 10644 10644 10645 10645 10643 10642 10642 10642 10641 10641 10641 10640 10640 10639 10637 10637 10637 10635 10634 10633 10632 10631 10629 10628 10627 10626 10624 10621 10620 10617 10614 10612 10609 10606 10603 10601 10599 10597 10595 10594 10593 10591 10590 10588 10587 10587 10586 10586 10585 10584 10583 10582 10581 10580 10579 10579 10578 10578 10579 10580 10580 10581 10581 10581 10582 10583 10584 10585 10586 10586 10587 10588 10589 10589 10589 10589 10591 10592 10594 10595
10636 10636 10637 10637 10637 10637 10637 10638 10639 10639 10638 10637 10636 10636 10635 10634 10635 10633 10633 10632 10630 10632 10633 10629 10628 10630 10627 10625 10624 10624 10623 10622 10619 10617 10615 10613 10610 10608 10605 10601 10598 10596 10594 10592 10589 10587 10586 10585 10584 10583 10581 10581 10580 10580 10579 10579 10578 10577 10576 10574 10573 10573 10572 10572 10573 10573 10573 10573 10574 10575 10576 10577 10578 10578 10579 10580 10580 10581 10582 10581 10580 10581 10582 10583 10585 10586
10628 10629 10630 10630 10630 10632 10631 10630 10631 10632 10632 10632 10631 10631 10630 10629 10629 10627 10626 10626 10625 10627 10628 10624 10624 10626 10623 10619 10619 10619 10618 10616 10614 10611 10608 10607 10606 10603 10600 10597 10592 10590 10588 10586 10584 10582 10580 10578 10577 10577 10576 10575 10574 10574 10574 10574 10573 10572 10571 10569 10568 10567 10566 10566 10566 10566 10566 10567 10567 10568 10570 10570 10570 10571 10572 10572 10573 10573 10574 10574 10573 10573 10574 10574 10575 10577
10620 10621 10623 10623 10623 10625 10624 10624 10625 10624 10625 10626 10626 10626 10625 10624 10622 10621 10621 10620 10619 10620 10620 10618 10620 10621 10617 10614 10614 10613 10612 10610 10608 10605 10602 10601 10600 10598 10596 10593 10588 10584 10582 10580 10578 10576 10574 10573 10571 10570 10570 10569 10568 10568 10568 10568 10568 10567 10566 10564 10563 10562 10561 10561 10560 10560 10560 10561 10562 10562 10563 10563 10563 10564 10565 10565 10564 10565 10566 10566 10566 10566 10566 10566 10566 10568
10612 10613 10615 10615 10614 10617 10617 10616 10617 10618 10618 10619 10620 10620 10620 10617 10615 10615 10615 10614 10613 10613 10612 10611 10614 10614 10609 10608 10608 10606 10605 10604 10602 10599 10596 10595 10594 10592 10590 10587 10583 10579 10576 10575 10573 10570 10569 10567 10565 10564 10564 10563 10562 10562 10562 10562 10562 10561 10561 10559 10557 10556 10555 10555 10555 10555 10555 10555 10556 10557 10557 10557 10557 10557 10557 10557 10557 10557 10558 10558 10558 10557 10557 10558 10558 10558
10605 10606 10608 10607 10606 10610 10609 10607 10609 10610 10611 10613 10615 10615 10612 10609 10608 10609 10609 10608 10607 10607 10606 10605 10607 10605 10602 10602 10601 10599 10598 10597 10596 10594 10592 10590 10589 10587 10585 10582 10577 10574 10571 10568 10567 10564 10563 10562 10560 10558 10557 10556 10557 10556 10556 10557 10556 10556 10555 10554 10552 10551 10550 10549 10549 10549 10549 10550 10551 10551 10551 10550 10550 10550 10551 10550 10549 10549 10550 10550 10550 10549 10549 10550 10550 10549
10598 10600 10601 10599 10599 10601 10601 10600 10601 10601 10604 10609 10610 10607 10604 10602 10603 10603 10602 10602 10601 10600 10601 10601 10600 10598 10596 10596 10594 10592 10591 10589 10588 10587 10586 10585 10584 10581 10579 10576 10573 10569 10565 10563 10560 10558 10556 10556 10554 10553 10551 10551 10551 10551 10551 10551 10550 10550 10550 10549 10547 10546 10544 10544 10543 10543 10543 10544 10545 10545 10545 10544 10544 10543 10544 10543 10542 10542 10542 10542 10542 10542 10543 10543 10542 10542
10591 10592 10592 10592 10592 10592 10592 10592 10590 10592 10599 10602 10601 10599 10597 10596 10596 10596 10596 10596 10595 10594 10595 10595 10594 10592 10591 10589 10588 10587 10585 10582 10580 10579 10578 10579 10578 10574 10571 10570 10567 10564 10560 10557 10554 10552 10550 10549 10549 10547 10546 10545 10545 10546 10546 10545 10544 10544 10545 10544 10542 10540 10539 10538 10538 10537 10537 10538 10538 10539 10539 10538 10537 10537 10537 10537 10536 10535 10534 10534 10535 10536 10537 10537 10536 10536
10582 10583 10584 10585 10585 10584 10583 10582 10581 10586 10592 10592 10591 10593 10592 10589 10587 10588 10589 10589 10588 10588 10588 10588 10587 10587 10585 10584 10583 10581 10579 10576 10573 10572 10571 10571 10570 10567 10564 10562 10560 10558 10555 10551 10548 10545 10544 10543 10543 10541 10540 10539 10539 10539 10539 10539 10539 10539 10539 10538 10537 10535 10534 10532 10532 10531 10531 10531 10532 10532 10532 10532 10531 10531 10530 10530 10530 10529 10528 10528 10529 10530 10531 10531 10531 10531
10573 10573 10575 10576 10576 10575 10574 10574 10575 10579 10582 10582 10583 10585 10584 10581 10579 10580 10580 10580 10580 10580 10580 10580 10580 10580 10579 10578 10577 10575 10573 10570 10566 10564 10565 10564 10562 10560 10558 10555 10553 10552 10549 10546 10542 10539 10537 10537 10537 10535 10534 10533 10533 10533 10533 10533 10533 10533 10532 10532 10531 10530 10529 10527 10526 10525 10525 10525 10526 10526 10526 10526 10525 10525 10525 10524 10524 10523 10522 10521 10522 10525 10526 10525 10525 10525
10562 10563 10566 10567 10566 10566 10567 10567 10568 10570 10573 10575 10576 10576 10576 10574 10572 10571 10570 10571 10571 10571 10570 10571 10572 10572 10571 10570 10569 10567 10565 10563 10559 10556 10558 10558 10555 10553 10552 10549 10546 10544 10543 10540 10537 10533 10530 10530 10530 10529 10528 10527 10527 10527 10527 10527 10527 10527 10526 10526 10525 10525 10524 10522 10521 10520 10520 10520 10520 10520 10520 10519 10519 10520 10520 10519 10518 10517 10516 10516 10516 10517 10518 10518 10519 10520
10551 10553 10556 10556 10557 10558 10559 10560 10561 10563 10564 10566 10567 10568 10568 10566 10564 10562 10561 10562 10563 10561 10560 10561 10563 10563 10562 10560 10560 10558 10557 10556 10551 10547 10548 10550 10547 10545 10544 10542 10540 10538 10536 10533 10531 10527 10525 10524 10523 10523 10522 10521 10521 10522 10522 10522 10522 10521 10520 10520 10519 10519 10519 10517 10516 10515 10514 10513 10514 10515 10514 10513 10513 10514 10514 10514 10513 10512 10511 10510 10510 10510 10511 10512 10513 10513
10540 10543 10544 10545 10549 10551 10551 10552 10553 10554 10555 10556 10558 10559 10559 10557 10555 10553 10553 10556 10557 10553 10552 10554 10554 10554 10553 10551 10550 10549 10548 10548 10545 10540 10540 10540 10538 10537 10536 10533 10532 10531 10529 10527 10524 10521 10519 10518 10517 10517 10516 10516 10516 10516 10516 10516 10516 10515 10514 10514 10514 10514 10513 10512 10511 10509 10508 10507 10508 10509 10508 10508 10507 10508 10508 10508 10508 10507 10506 10505 10505 10505 10505 10506 10506 10506
10530 10533 10534 10537 10541 10542 10541 10543 10545 10544 10544 10548 10550 10550 10549 10547 10545 10544 10546 10549 10549 10546 10546 10546 10545 10546 10545 10542 10541 10540 10539 10540 10538 10534 10532 10531 10530 10529 10527 10525 10523 10522 10521 10520 10517 10515 10513 10511 10511 10510 10510 10510 10510 10510 10510 10510 10510 10509 10509 10508 10508 10508 10508 10506 10505 10503 10502 10502 10502 10502 10502 10502 10502 10501 10502 10502 10502 10502 10501 10501 10500 10500 10500 10500 10500 10500
10521 10524 10526 10529 10532 10532 10531 10534 10536 10534 10535 10540 10541 10539 10538 10537 10535 10537 10539 10540 10540 10539 10539 10538 10537 10538 10537 10535 10533 10532 10531 10532 10531 10528 10525 10523 10522 10521 10520 10518 10516 10514 10513 10512 10510 10509 10507 10505 10505 10504 10504 10504 10504 10503 10504 10504 10504 10503 10503 10503 10503 10502 10502 10501 10499 10497 10497 10497 10497 10497 10497 10497 10496 10496 10495 10496 10496 10496 10496 10495 10495 10495 10494 10494 10494 10494
10512 10514 10517 10520 10523 10523 10522 10524 10526 10526 10528 10531 10530 10528 10528 10528 10529 10530 10530 10530 10531 10531 10530 10529 10528 10529 10528 10527 10525 10524 10522 10523 10524 10522 10519 10515 10514 10513 10513 10511 10509 10507 10506 10504 10502 10502 10501 10499 10498 10498 10497 10497 10497 10497 10498 10498 10498 10498 10497 10497 10497 10497 10496 10495 10493 10492 10491 10491 10492 10492 10491 10491 10491 10491 10490 10490 10490 10490 10490 10490 10489 10489 10488 10488 10488 10487
10501 10504 10508 10512 10513 10512 10512 10515 10518 10519 10520 10521 10519 10518 10519 10521 10522 10522 10521 10521 10521 10520 10520 10520 10519 10519 10519 10518 10516 10515 10514 10514 10515 10515 10512 10509 10506 10504 10504 10503 10502 10500 10499 10497 10495 10494 10494 10493 10492 10491 10490 10490 10490 10491 10491 10492 10492 10492 10492 10492 10492 10491 10490 10489 10488 10487 10486 10486 10486 10486 10486 10486 10486 10486 10486 10485 10485 10485 10484 10484 10483 10483 10482 10481 10481 10481
10492 10496 10500 10502 10502 10501 10504 10507 10509 10508 10509 10511 10511 10509 10510 10513 10514 10514 10512 10511 10511 10510 10510 10510 10510 10510 10511 10510 10507 10506 10505 10505 10505 10505 10504 10502 10499 10496 10494 10494 10493 10492 10492 10490 10488 10486 10486 10486 10485 10484 10484 10484 10484 10484 10485 10485 10486 10485 10486 10487 10486 10485 10484 10483 10483 10482 10481 10481 10481 10481 10481 10481 10481 10481 10481 10480 10480 10480 10479 10479 10478 10477 10476 10475 10475 10475
10484 10486 10489 10491 10491 10492 10495 10496 10496 10497 10499 10501 10502 10500 10501 10503 10505 10504 10503 10501 10500 10500 10501 10500 10500 10500 10500 10500 10498 10496 10495 10496 10496 10496 10495 10494 10491 10488 10486 10485 10484 10483 10483 10483 10481 10479 10478 10478 10478 10477 10477 10477 10477 10478 10478 10479 10479 10479 10480 10481 10480 10479 10478 10478 10477 10477 10476 10475 10476 10476 10476 10476 10476 10476 10476 10475 10475 10475 10474 10474 10473 10472 10471 10470 10470 10469
10474 10475 10477 10480 10481 10482 10484 10484 10485 10487 10489 10492 10492 10491 10491 10493 10494 10494 10493 10490 10488 10489 10491 10491 10490 10490 10490 10490 10489 10487 10485 10486 10486 10486 10486 10484 10482 10480 10478 10477 10476 10475 10474 10474 10474 10472 10470 10470 10470 10470 10470 10470 10470 10471 10472 10473 10473 10473 10475 10476 10474 10473 10473 10472 10472 10472 10471 10470 10470 10471 10471 10471 10471 10471 10470 10470 10470 10470 10470 10469 10468 10467 10466 10466 10465 10464
10463 10464 10467 10470 10469 10470 10473 10474 10474 10476 10479 10481 10482 10481 10482 10484 10484 10483 10482 10479 10478 10478 10480 10481 10481 10480 10479 10479 10479 10478 10476 10475 10475 10475 10475 10475 10473 10471 10469 10468 10468 10467 10465 10465 10465 10464 10462 10462 10462 10462 10463 10463 10463 10464 10465 10466 10466 10467 10469 10469 10469 10468 10467 10467 10467 10467 10466 10465 10465 10465 10466 10466 10466 10466 10466 10466 10466 10466 10465 10464 10463 10463 10462 10461 10460 10458
10452 10453 10456 10458 10458 10459 10463 10464 10465 10466 10469 10470 10470 10471 10472 10473 10472 10471 10470 10469 10468 10468 10469 10470 10471 10470 10470 10469 10469 10468 10466 10464 10463 10464 10464 10464 10463 10461 10459 10458 10458 10458 10457 10456 10455 10456 10455 10454 10453 10454 10455 10456 10456 10457 10459 10460 10461 10462 10462 10462 10462 10462 10462 10462 10462 10462 10461 10460 10460 10460 10461 10461 10461 10461 10461 10461 10461 10461 10460 10459 10458 10458 10457 10456 10455 10453
10441 10442 10444 10446 10447 10450 10453 10454 10455 10457 10459 10459 10460 10459 10459 10460 10460 10460 10459 10458 10458 10458 10459 10460 10460 10460 10460 10459 10458 10457 10456 10453 10452 10453 10453 10453 10453 10451 10450 10448 10447 10447 10448 10447 10446 10446 10446 10446 10445 10446 10447 10448 10449 10450 10452 10453 10454 10455 10456 10456 10456 10456 10456 10456 10457 10456 10456 10456 10455 10455 10456 10456 10456 10457 10457 10456 10456 10456 10455 10454 10453 10452 10451 10450 10449 10448
10430 10431 10433 10435 10438 10441 10443 10443 10444 10446 10447 10448 10448 10447 10446 10447 10449 10449 10448 10448 10448 10449 10449 10449 10449 10449 10449 10448 10446 10446 10445 10443 10441 10442 10443 10442 10441 10440 10440 10439 10438 10437 10437 10437 10437 10437 10437 10437 10437 10437 10439 10440 10442 10443 10445 10446 10447 10449 10449 10449 10449 10449 10450 10451 10451 10451 10451 10451 10451 10451 10451 10451 10452 10452 10452 10452 10451 10451 10450 10449 10448 10448 10447 10446 10445 10444
10418 10420 10423 10427 10430 10432 10432 10431 10432 10434 10436 10436 10435 10434 10435 10437 10439 10439 10438 10438 10439 10439 10439 10439 10439 10438 10436 10435 10435 10435 10435 10433 10431 10431 10431 10430 10429 10428 10428 10428 10429 10428 10427 10427 10427 10427 10428 10428 10428 10429 10431 10432 10434 10436 10437 10438 10440 10442 10442 10442 10442 10442 10444 10445 10446 10445 10445 10446 10446 10446 10446 10446 10447 10447 10447 10447 10446 10446 10445 10445 10444 10444 10443 10442 10441 10440